Portada
METAR-TAF:

METAR-TAF

Aeroports :

NWS Office

Majuro, Illes Marshall

latitud: 07-05N, longitud: 171-12E, altitud: 4 m

Observació

L'informe es va fer fa 22 minuts, a les 23:53 UTC
Vent 5 kt del Est/Nord-Est
Temperatura 30°C
Humitat 75%
Pressió 1010 hPa
Visibilitat: 24.1 km
Escasses núvols a una alçada de 1500 ft
Núvols disperses a una alçada de 5000 ft
Cel ennuvolat a una alçada de 12000 ft
Cel cobert a una alçada de 30000 ft

METAR: PKMR 232353Z 06005KT 15SM FEW015 SCT050 BKN120 OVC300 30/25 A2983 RMK SLP103 60047 8/878 T02970249 10297 20271 58010

Hora: 12:15 (00:15 UTC)


TAF: manca

Observacions i pronòstics meteorològics de més de 4000 aeroports (METAR i TAF).

Les estacions disponibles són els punts grocs i vermells al mapa.

Posi el ratolí al punt desitjat per veure el nom de l'estació.

Feu clic per veure les observacions i els pronòstics meteorològics.

Per canviar el mapa: feu clic els botons verds amb una creu de color negre per apropar; al botó verd amb un guió per allunyar la imatge; o en les fletxes verdes per a mapes adjacents.


METAR-TAF: